Tracking 30415 objects as of 14-May-2025
HD Live streaming from Space Station
objects crossing your sky now

THORAD AGENA D DEB

Track THORAD AGENA D DEB now!
10-day predictions


NORAD ID: 4857
Int'l Code: 1970-025EM
Perigee: 774.8 km
Apogee: 840.6 km
Inclination: 99.8 °
Period: 100.9 minutes
Semi major axis: 7178 km
RCS: 0.0497 m2 (small)
Launch date: April 8, 1970
Source: United States (US)
Launch site: AIR FORCE WESTERN TEST RANGE (AFWTR)

Note: This is SATELLITE DEBRIS
Your satellite tracking list
Your tracking list is empty




NASA's NSSDC Master Catalog

Two Line Element Set (TLE):
1 04857U 70025EM  25133.80698328  .00002642  00000-0  10874-2 0  9992
2 04857  99.7696 347.9104 0045799 151.2117 209.1602 14.27367161765930
Source of the keplerian elements: AFSPC